User: anonymous   Login
Location: Plum
(40.5000°N, 79.7500°W)
Time: 09:40:22
(UTC-04:00)
Language:

MOZ.5/SAFIR/RUBIN 5/SL-8 - Orbit

View from above orbital plane
View from above orbital plane
View from above satellite
View from above satellite

Ground track
Ground track

The orbit data is extracted from the following two-line orbital elements,

1 28898U 05043G   16121.51557190  .00000137  00000-0  37469-4 0  9995
2 28898  97.8743 284.6003 0020830  48.5796 311.7191 14.60088333559615
Epoch (UTC): 30 April 2016 12:22:25
Eccentricity: 0.0020830
inclination: 97.8743°
perigee height: 678 km
apogee height: 707 km
right ascension of ascending node: 284.6003°
argument of perigee: 48.5796°
revolutions per day: 14.60088333
mean anomaly at epoch: 311.7191°
orbit number at epoch: 55961

The dashed part of the orbit path shows where the satellite is in the earth's shadow,  

DLR